SWA4569 KTUL-KAUS

Flight info

Callsign SWA4569
Flight time 1h 6m
Altitude 32000
Route DCT OKM DCT PLATE DCT BROBB DCT WINDU SEWZY6
Aircraft B38M/M-SDE1FGHILORVWXY/HB1

Departure

Time 2026-04-22 23:41
Airport Tulsa International Airport (KTUL)

Arrival

Time 2026-04-23 00:48
Airport Austin Bergstrom International Airport (KAUS)
Time Latitude Longitude Altitude Speed Heading
2026-04-22 23:28 36.19225 -95.88999 658 ft 0 kts 153°
2026-04-22 23:31 36.19242 -95.89011 658 ft 3 kts 138°
2026-04-22 23:31 36.19254 -95.89029 659 ft 3 kts 107°
2026-04-22 23:31 36.19256 -95.89051 658 ft 3 kts 77°
2026-04-22 23:32 36.19248 -95.89072 660 ft 3 kts 46°
2026-04-22 23:32 36.19247 -95.89074 658 ft 0 kts 43°
2026-04-22 23:37 36.19249 -95.89072 660 ft 2 kts 43°
2026-04-22 23:37 36.19296 -95.89018 659 ft 17 kts 43°
2026-04-22 23:37 36.19382 -95.88892 658 ft 21 kts 62°
2026-04-22 23:37 36.19481 -95.88746 656 ft 25 kts 37°
2026-04-22 23:38 36.19641 -95.88628 658 ft 29 kts 17°
2026-04-22 23:38 36.19842 -95.88544 655 ft 31 kts 18°
2026-04-22 23:38 36.20050 -95.88459 648 ft 32 kts 19°
2026-04-22 23:38 36.20255 -95.88380 644 ft 30 kts 10°
2026-04-22 23:39 36.20463 -95.88364 640 ft 29 kts
2026-04-22 23:39 36.20660 -95.88351 642 ft 28 kts
2026-04-22 23:39 36.20847 -95.88339 642 ft 26 kts
2026-04-22 23:39 36.21022 -95.88326 645 ft 24 kts
2026-04-22 23:40 36.21186 -95.88316 640 ft 23 kts
2026-04-22 23:40 36.21343 -95.88301 640 ft 22 kts 21°
2026-04-22 23:40 36.21349 -95.88148 639 ft 22 kts 153°
2026-04-22 23:40 36.21165 -95.88149 640 ft 50 kts 183°
2026-04-22 23:41 36.20558 -95.88187 641 ft 124 kts 182°
2026-04-22 23:41 36.19491 -95.88266 746 ft 175 kts 182°
2026-04-22 23:41 36.18332 -95.88332 1861 ft 157 kts 179°
2026-04-22 23:41 36.17244 -95.88290 2785 ft 157 kts 179°
2026-04-22 23:42 36.16775 -95.88259 3015 ft 162 kts 178°
2026-04-22 23:42 36.15903 -95.88202 3434 ft 169 kts 178°
2026-04-22 23:42 36.14729 -95.88128 4209 ft 165 kts 179°
2026-04-22 23:43 36.13559 -95.88059 4796 ft 179 kts 179°
2026-04-22 23:43 36.12228 -95.87988 4999 ft 202 kts 178°
2026-04-22 23:43 36.10771 -95.87918 5550 ft 216 kts 180°
2026-04-22 23:43 36.09195 -95.87847 6078 ft 241 kts 179°
2026-04-22 23:44 36.07453 -95.87789 6733 ft 257 kts 180°
2026-04-22 23:44 36.05659 -95.87775 7699 ft 258 kts 181°
2026-04-22 23:44 36.03885 -95.87797 8847 ft 253 kts 183°
2026-04-22 23:44 36.02094 -95.87784 9628 ft 265 kts 180°
2026-04-22 23:45 36.00202 -95.87693 10228 ft 278 kts 181°
2026-04-22 23:45 35.98262 -95.87613 10880 ft 288 kts 180°
2026-04-22 23:45 35.96204 -95.87532 11595 ft 296 kts 181°
2026-04-22 23:45 35.94145 -95.87453 12343 ft 302 kts 181°
2026-04-22 23:46 35.92023 -95.87375 13129 ft 307 kts 180°
2026-04-22 23:46 35.89877 -95.87299 13916 ft 310 kts 181°
2026-04-22 23:46 35.87698 -95.87223 14462 ft 321 kts 181°
2026-04-22 23:46 35.85364 -95.87146 14568 ft 347 kts 181°
2026-04-22 23:47 35.82875 -95.87063 14736 ft 369 kts 180°
2026-04-22 23:47 35.80231 -95.86973 14884 ft 390 kts 180°
2026-04-22 23:47 35.77439 -95.86877 14987 ft 411 kts 180°
2026-04-22 23:47 35.74502 -95.86776 15015 ft 432 kts 180°
2026-04-22 23:48 35.71441 -95.86672 15014 ft 445 kts 180°
2026-04-22 23:48 35.68399 -95.86698 14985 ft 427 kts 186°
2026-04-22 23:48 35.65534 -95.87196 15000 ft 406 kts 191°
2026-04-22 23:48 35.62810 -95.87768 14986 ft 389 kts 192°
2026-04-22 23:49 35.61067 -95.88139 14987 ft 378 kts 192°
2026-04-22 23:49 35.57724 -95.88845 14984 ft 358 kts 192°
2026-04-22 23:49 35.55304 -95.89346 15000 ft 352 kts 191°
2026-04-22 23:49 35.52859 -95.89848 15173 ft 361 kts 191°
2026-04-22 23:50 35.50382 -95.90351 15814 ft 361 kts 191°
2026-04-22 23:50 35.47900 -95.90850 16490 ft 362 kts 191°
2026-04-22 23:50 35.45406 -95.91350 17111 ft 364 kts 191°
2026-04-22 23:50 35.43708 -95.91688 17487 ft 367 kts 191°
2026-04-22 23:51 35.41185 -95.92190 18043 ft 370 kts 191°
2026-04-22 23:51 35.38664 -95.92691 18569 ft 373 kts 191°
2026-04-22 23:51 35.36063 -95.93206 19103 ft 375 kts 191°
2026-04-22 23:51 35.33512 -95.93711 19624 ft 377 kts 191°
2026-04-22 23:52 35.30916 -95.94224 20133 ft 379 kts 191°
2026-04-22 23:52 35.28304 -95.94740 20636 ft 382 kts 191°
2026-04-22 23:52 35.25672 -95.95260 21137 ft 384 kts 191°
2026-04-22 23:52 35.23025 -95.95782 21634 ft 386 kts 191°
2026-04-22 23:53 35.20369 -95.96306 22120 ft 388 kts 191°
2026-04-22 23:53 35.17704 -95.96832 22589 ft 391 kts 191°
2026-04-22 23:53 35.15001 -95.97365 23060 ft 393 kts 191°
2026-04-22 23:53 35.12291 -95.97898 23535 ft 395 kts 191°
2026-04-22 23:54 35.09568 -95.98434 23911 ft 398 kts 191°
2026-04-22 23:54 35.06831 -95.98972 24350 ft 399 kts 190°
2026-04-22 23:54 35.04095 -95.99509 24756 ft 400 kts 190°
2026-04-22 23:54 35.01342 -96.00050 24994 ft 401 kts 190°
2026-04-22 23:55 34.98576 -96.00592 25001 ft 402 kts 190°
2026-04-22 23:55 34.95820 -96.01133 25012 ft 402 kts 190°
2026-04-22 23:55 34.93060 -96.01674 25021 ft 402 kts 190°
2026-04-22 23:55 34.90287 -96.02217 25027 ft 403 kts 190°
2026-04-22 23:56 34.87513 -96.02760 25023 ft 405 kts 190°
2026-04-22 23:56 34.84728 -96.03305 25019 ft 405 kts 190°
2026-04-22 23:56 34.81946 -96.03848 25016 ft 406 kts 190°
2026-04-22 23:56 34.79158 -96.04392 25013 ft 406 kts 190°
2026-04-22 23:57 34.76374 -96.04936 25012 ft 405 kts 190°
2026-04-22 23:57 34.73588 -96.05480 25012 ft 404 kts 190°
2026-04-22 23:57 34.70815 -96.06020 25006 ft 404 kts 190°
2026-04-22 23:57 34.68054 -96.06558 25002 ft 403 kts 191°
2026-04-22 23:58 34.65269 -96.07099 25008 ft 402 kts 190°
2026-04-22 23:58 34.62544 -96.07629 25005 ft 402 kts 190°
2026-04-22 23:58 34.59785 -96.08166 25005 ft 402 kts 190°
2026-04-22 23:58 34.57025 -96.08702 25002 ft 402 kts 190°
2026-04-22 23:59 34.54260 -96.09239 25004 ft 402 kts 191°
2026-04-22 23:59 34.51499 -96.09775 25003 ft 402 kts 191°
2026-04-22 23:59 34.48739 -96.10311 25006 ft 402 kts 191°
2026-04-22 23:59 34.45976 -96.10846 25004 ft 402 kts 191°
2026-04-23 00:00 34.40445 -96.11917 25008 ft 403 kts 191°
2026-04-23 00:00 34.37685 -96.12506 25007 ft 403 kts 195°
2026-04-23 00:00 34.35001 -96.13473 25010 ft 402 kts 199°
2026-04-23 00:01 34.32343 -96.14536 25000 ft 402 kts 200°
2026-04-23 00:01 34.29695 -96.15615 25003 ft 403 kts 200°
2026-04-23 00:01 34.27042 -96.16696 25007 ft 403 kts 200°
2026-04-23 00:01 34.24377 -96.17775 25003 ft 403 kts 200°
2026-04-23 00:02 34.21712 -96.18847 25005 ft 403 kts 200°
2026-04-23 00:02 34.19048 -96.19911 25006 ft 403 kts 200°
2026-04-23 00:02 34.16383 -96.20970 25008 ft 402 kts 200°
2026-04-23 00:02 34.13723 -96.22025 25011 ft 402 kts 199°
2026-04-23 00:03 34.11066 -96.23077 25013 ft 403 kts 199°
2026-04-23 00:03 34.08398 -96.24132 25019 ft 403 kts 199°
2026-04-23 00:03 34.05734 -96.25185 25013 ft 403 kts 199°
2026-04-23 00:03 34.03032 -96.26253 25018 ft 403 kts 199°
2026-04-23 00:04 34.00365 -96.27305 25020 ft 403 kts 199°
2026-04-23 00:04 33.97695 -96.28358 25031 ft 403 kts 199°
2026-04-23 00:04 33.95035 -96.29407 25036 ft 403 kts 199°
2026-04-23 00:04 33.92364 -96.30458 25033 ft 403 kts 199°
2026-04-23 00:05 33.89694 -96.31509 25037 ft 403 kts 199°
2026-04-23 00:05 33.87021 -96.32561 25041 ft 403 kts 199°
2026-04-23 00:05 33.84351 -96.33611 25040 ft 403 kts 199°
2026-04-23 00:05 33.81692 -96.34656 25038 ft 403 kts 199°
2026-04-23 00:06 33.79022 -96.35704 25041 ft 403 kts 200°
2026-04-23 00:06 33.76353 -96.36751 25040 ft 403 kts 199°
2026-04-23 00:06 33.73692 -96.37794 25035 ft 403 kts 199°
2026-04-23 00:06 33.71017 -96.38843 25033 ft 403 kts 199°
2026-04-23 00:07 33.68358 -96.39884 25018 ft 403 kts 199°
2026-04-23 00:07 33.65684 -96.40931 25016 ft 403 kts 199°
2026-04-23 00:07 33.63015 -96.41974 25016 ft 403 kts 200°
2026-04-23 00:07 33.60341 -96.43019 25018 ft 404 kts 199°
2026-04-23 00:08 33.57672 -96.44062 25015 ft 404 kts 199°
2026-04-23 00:08 33.55001 -96.45104 25027 ft 404 kts 199°
2026-04-23 00:08 33.52336 -96.46144 25028 ft 404 kts 200°
2026-04-23 00:08 33.49664 -96.47185 25027 ft 404 kts 199°
2026-04-23 00:09 33.46987 -96.48228 25027 ft 404 kts 199°
2026-04-23 00:09 33.44311 -96.49270 25029 ft 404 kts 199°
2026-04-23 00:09 33.41638 -96.50310 25023 ft 404 kts 199°
2026-04-23 00:09 33.38960 -96.51351 25030 ft 405 kts 200°
2026-04-23 00:10 33.36276 -96.52394 25017 ft 405 kts 199°
2026-04-23 00:10 33.33601 -96.53433 25016 ft 405 kts 199°
2026-04-23 00:10 33.30919 -96.54473 25016 ft 405 kts 199°
2026-04-23 00:10 33.28232 -96.55516 25023 ft 406 kts 199°
2026-04-23 00:11 33.25546 -96.56557 25015 ft 406 kts 199°
2026-04-23 00:11 33.22867 -96.57594 25022 ft 406 kts 199°
2026-04-23 00:11 33.20177 -96.58636 25019 ft 406 kts 199°
2026-04-23 00:11 33.17479 -96.59679 25023 ft 406 kts 199°
2026-04-23 00:12 33.14787 -96.60719 25027 ft 407 kts 199°
2026-04-23 00:12 33.12098 -96.61758 25029 ft 407 kts 199°
2026-04-23 00:12 33.09405 -96.62798 25033 ft 407 kts 199°
2026-04-23 00:12 33.06706 -96.63839 25070 ft 406 kts 200°
2026-04-23 00:13 33.04019 -96.64875 25197 ft 407 kts 200°
2026-04-23 00:13 33.01313 -96.65918 25316 ft 409 kts 200°
2026-04-23 00:13 32.98603 -96.66962 25434 ft 411 kts 200°
2026-04-23 00:13 32.95874 -96.68012 25555 ft 412 kts 200°
2026-04-23 00:14 32.93146 -96.69061 25673 ft 414 kts 200°
2026-04-23 00:14 32.90391 -96.70120 25792 ft 415 kts 200°
2026-04-23 00:14 32.87640 -96.71177 25906 ft 416 kts 200°
2026-04-23 00:14 32.84882 -96.72235 26024 ft 417 kts 200°
2026-04-23 00:15 32.82212 -96.73259 26134 ft 418 kts 200°
2026-04-23 00:15 32.79447 -96.74319 26263 ft 419 kts 200°
2026-04-23 00:15 32.76666 -96.75384 26378 ft 419 kts 200°
2026-04-23 00:15 32.73883 -96.76449 26502 ft 420 kts 200°
2026-04-23 00:16 32.71104 -96.77513 26622 ft 420 kts 200°
2026-04-23 00:16 32.68317 -96.78578 26737 ft 421 kts 200°
2026-04-23 00:16 32.65530 -96.79643 26864 ft 421 kts 200°
2026-04-23 00:16 32.62750 -96.80705 26987 ft 421 kts 200°
2026-04-23 00:17 32.59950 -96.81773 27110 ft 422 kts 200°
2026-04-23 00:17 32.57153 -96.82840 27235 ft 422 kts 200°
2026-04-23 00:17 32.54362 -96.83903 27374 ft 421 kts 200°
2026-04-23 00:17 32.51572 -96.84966 27501 ft 421 kts 201°
2026-04-23 00:18 32.48779 -96.86029 27624 ft 421 kts 201°
2026-04-23 00:18 32.45991 -96.87090 27749 ft 421 kts 201°
2026-04-23 00:18 32.43207 -96.88148 27873 ft 420 kts 201°
2026-04-23 00:18 32.40422 -96.89206 28012 ft 421 kts 201°
2026-04-23 00:19 32.37599 -96.90219 28267 ft 426 kts 197°
2026-04-23 00:19 32.34702 -96.90940 28688 ft 427 kts 194°
2026-04-23 00:19 32.31771 -96.91560 29168 ft 426 kts 193°
2026-04-23 00:19 32.28858 -96.92144 29626 ft 424 kts 193°
2026-04-23 00:20 32.25946 -96.92729 30000 ft 425 kts 194°
2026-04-23 00:20 32.20079 -96.93944 29981 ft 429 kts 194°
2026-04-23 00:21 32.14247 -96.95184 29975 ft 423 kts 194°
2026-04-23 00:21 32.08479 -96.96424 29988 ft 425 kts 194°
2026-04-23 00:22 32.02646 -96.97678 29987 ft 427 kts 194°
2026-04-23 00:22 31.96753 -96.98941 29982 ft 428 kts 194°
2026-04-23 00:23 31.90925 -97.00187 29975 ft 428 kts 194°
2026-04-23 00:23 31.85032 -97.01446 29982 ft 427 kts 194°
2026-04-23 00:24 31.79214 -97.02687 29979 ft 425 kts 194°
2026-04-23 00:24 31.73397 -97.03926 29981 ft 423 kts 194°
2026-04-23 00:25 31.67656 -97.05149 29988 ft 421 kts 194°
2026-04-23 00:25 31.61899 -97.06373 29987 ft 421 kts 194°
2026-04-23 00:26 31.56142 -97.07596 29988 ft 421 kts 194°
2026-04-23 00:26 31.50437 -97.09048 29945 ft 415 kts 202°
2026-04-23 00:26 31.47696 -97.10118 29758 ft 417 kts 204°
2026-04-23 00:27 31.44967 -97.11269 29584 ft 417 kts 204°
2026-04-23 00:27 31.42232 -97.12418 29408 ft 417 kts 204°
2026-04-23 00:27 31.39450 -97.13557 29223 ft 417 kts 203°
2026-04-23 00:27 31.36744 -97.14637 29053 ft 417 kts 203°
2026-04-23 00:28 31.33986 -97.15721 28773 ft 420 kts 203°
2026-04-23 00:28 31.31203 -97.16807 28488 ft 422 kts 202°
2026-04-23 00:28 31.28416 -97.17892 28202 ft 424 kts 202°
2026-04-23 00:28 31.25616 -97.18983 27922 ft 425 kts 202°
2026-04-23 00:29 31.22818 -97.20074 27643 ft 425 kts 202°
2026-04-23 00:29 31.20006 -97.21170 27363 ft 425 kts 202°
2026-04-23 00:29 31.18112 -97.21908 27179 ft 425 kts 202°
2026-04-23 00:29 31.15309 -97.22999 26906 ft 424 kts 202°
2026-04-23 00:30 31.12508 -97.24090 26632 ft 424 kts 202°
2026-04-23 00:30 31.09716 -97.25176 26361 ft 423 kts 202°
2026-04-23 00:30 31.06925 -97.26262 26094 ft 422 kts 202°
2026-04-23 00:30 31.04140 -97.27345 25829 ft 422 kts 202°
2026-04-23 00:31 31.01360 -97.28425 25468 ft 423 kts 202°
2026-04-23 00:31 30.98518 -97.29532 24635 ft 435 kts 202°
2026-04-23 00:31 30.95624 -97.30656 23905 ft 443 kts 202°
2026-04-23 00:31 30.92673 -97.31800 23101 ft 449 kts 201°
2026-04-23 00:32 30.89693 -97.32960 22241 ft 454 kts 201°
2026-04-23 00:32 30.86681 -97.34140 21408 ft 458 kts 201°
2026-04-23 00:32 30.83657 -97.35325 20594 ft 461 kts 201°
2026-04-23 00:32 30.80612 -97.36548 19822 ft 462 kts 204°
2026-04-23 00:33 30.77725 -97.38066 19658 ft 448 kts 209°
2026-04-23 00:33 30.75033 -97.39676 19573 ft 434 kts 210°
2026-04-23 00:33 30.72360 -97.41303 19496 ft 422 kts 210°
2026-04-23 00:33 30.69790 -97.42820 18926 ft 425 kts 209°
2026-04-23 00:34 30.67093 -97.44367 18367 ft 423 kts 208°
2026-04-23 00:34 30.64453 -97.45863 17658 ft 422 kts 208°
2026-04-23 00:34 30.61844 -97.47341 16877 ft 423 kts 208°
2026-04-23 00:34 30.59196 -97.48843 16109 ft 424 kts 208°
2026-04-23 00:35 30.56546 -97.50348 15338 ft 424 kts 208°
2026-04-23 00:35 30.53891 -97.51856 14605 ft 424 kts 208°
2026-04-23 00:35 30.51247 -97.53357 13891 ft 424 kts 208°
2026-04-23 00:35 30.48603 -97.54857 13274 ft 420 kts 208°
2026-04-23 00:36 30.46030 -97.56313 13176 ft 403 kts 208°
2026-04-23 00:36 30.43587 -97.57812 12562 ft 397 kts 217°
2026-04-23 00:36 30.41581 -97.59977 11921 ft 391 kts 230°
2026-04-23 00:36 30.39724 -97.62275 11264 ft 391 kts 229°
2026-04-23 00:37 30.37836 -97.64521 10674 ft 384 kts 228°
2026-04-23 00:37 30.35994 -97.66696 10071 ft 371 kts 228°
2026-04-23 00:37 30.34280 -97.68771 10032 ft 340 kts 230°
2026-04-23 00:37 30.32917 -97.70778 10315 ft 294 kts 247°
2026-04-23 00:38 30.32680 -97.71465 10435 ft 274 kts 256°
2026-04-23 00:38 30.32382 -97.73426 10660 ft 232 kts 266°
2026-04-23 00:38 30.32460 -97.75201 10378 ft 216 kts 284°
2026-04-23 00:38 30.33001 -97.76804 9902 ft 212 kts 304°
2026-04-23 00:39 30.34026 -97.78056 9155 ft 221 kts 321°
2026-04-23 00:39 30.35335 -97.79074 8372 ft 228 kts 326°
2026-04-23 00:39 30.35950 -97.79523 8161 ft 225 kts 327°
2026-04-23 00:39 30.36074 -97.79610 8130 ft 224 kts 327°
2026-04-23 00:40 30.37411 -97.80445 7885 ft 213 kts 333°
2026-04-23 00:40 30.38817 -97.81107 7034 ft 231 kts 341°
2026-04-23 00:40 30.40407 -97.81427 6673 ft 224 kts 348°
2026-04-23 00:40 30.41903 -97.81442 6480 ft 212 kts
2026-04-23 00:41 30.43259 -97.80752 6048 ft 213 kts 34°
2026-04-23 00:41 30.44346 -97.79568 5412 ft 221 kts 56°
2026-04-23 00:41 30.44897 -97.77925 4854 ft 220 kts 88°
2026-04-23 00:41 30.44752 -97.76211 4407 ft 209 kts 105°
2026-04-23 00:42 30.44423 -97.74609 4017 ft 204 kts 106°
2026-04-23 00:42 30.44102 -97.73021 3600 ft 200 kts 107°
2026-04-23 00:42 30.43755 -97.71470 3194 ft 196 kts 112°
2026-04-23 00:42 30.42979 -97.70257 2880 ft 184 kts 145°
2026-04-23 00:43 30.41811 -97.69760 2454 ft 178 kts 167°
2026-04-23 00:43 30.40597 -97.69649 2057 ft 171 kts 174°
2026-04-23 00:43 30.39427 -97.69482 2018 ft 168 kts 168°
2026-04-23 00:43 30.38243 -97.69223 2281 ft 173 kts 171°
2026-04-23 00:44 30.37033 -97.69098 2395 ft 184 kts 167°
2026-04-23 00:44 30.35721 -97.68797 2712 ft 196 kts 170°
2026-04-23 00:44 30.34395 -97.68641 2776 ft 189 kts 172°
2026-04-23 00:44 30.33089 -97.68496 2829 ft 189 kts 174°
2026-04-23 00:45 30.31789 -97.68380 2796 ft 185 kts 175°
2026-04-23 00:45 30.30512 -97.68331 2707 ft 185 kts 180°
2026-04-23 00:45 30.29208 -97.68341 2484 ft 183 kts 175°
2026-04-23 00:45 30.27986 -97.68255 2255 ft 173 kts 175°
2026-04-23 00:46 30.26783 -97.68179 1928 ft 172 kts 175°
2026-04-23 00:46 30.25589 -97.68146 1572 ft 171 kts 175°
2026-04-23 00:46 30.24402 -97.68061 1211 ft 169 kts 174°
2026-04-23 00:46 30.23292 -97.67986 1005 ft 155 kts 177°
2026-04-23 00:47 30.22233 -97.67965 806 ft 149 kts 177°
2026-04-23 00:47 30.21231 -97.67939 574 ft 138 kts 176°
2026-04-23 00:47 30.20344 -97.67909 533 ft 116 kts 179°
2026-04-23 00:47 30.19605 -97.67889 519 ft 91 kts 177°
2026-04-23 00:48 30.19392 -97.67680 518 ft 31 kts 85°
2026-04-23 00:48 30.19398 -97.67444 517 ft 29 kts 89°
2026-04-23 00:48 30.19512 -97.67319 515 ft 27 kts 352°
2026-04-23 00:48 30.19693 -97.67326 515 ft 25 kts 358°
2026-04-23 00:49 30.19863 -97.67332 517 ft 24 kts 359°
2026-04-23 00:49 30.20023 -97.67336 521 ft 23 kts 357°
2026-04-23 00:49 30.20093 -97.67219 520 ft 22 kts 96°
2026-04-23 00:49 30.20099 -97.67045 518 ft 21 kts 89°
2026-04-23 00:50 30.20093 -97.66876 515 ft 21 kts 105°
2026-04-23 00:50 30.20086 -97.66782 513 ft 5 kts 41°
2026-04-23 00:50 30.20133 -97.66763 514 ft 7 kts 17°
2026-04-23 00:50 30.20140 -97.66761 514 ft 2 kts 16°